Location: Rumah Labang
(3.2333°N, 113.2000°E)
Time: 15:23:57
(UTC+00:00)

Daily predictions for brighter satellites

Satellite Brightness Start Highest point End
(mag) Time Altitude Azimuth Time Altitude Azimuth Time Altitude Azimuth
Ariane H10 4.3 12:02:58 10° SW 12:04:51 18° S 12:05:08 18° S
OAO 2 Rocket 3.6 12:03:43 10° WNW 12:08:31 61° SW 12:11:17 25° SE
Ariane H10+ 2.9 12:13:27 10° WNW 12:16:12 30° WNW 12:16:12 30° WNW
In-Cosmos 22 Rocket 4.1 12:27:23 10° S 12:32:04 68° S 12:32:04 68° S
ARIANE 5 DEB (SYLDA) 4.3 12:29:30 10° W 12:35:52 80° N 12:37:23 63° ENE
ATLAS 2AS CENTAUR R/B 4.0 12:39:52 10° SW 12:46:24 36° WNW 12:49:58 23° NNW
Ariane H10+ 4.1 12:52:51 10° W 13:36:55 - E 22:36:55 10° E
USA 59 Rocket 3.5 13:20:46 15° SSE 13:20:46 15° SSE 13:22:10 10° SSE
CZ-3C R/B 3.8 13:15:41 10° WSW 14:01:02 59° W 14:01:02 59° W
ATLAS 2AS CENTAUR RB 4.3 19:13:50 47° E 19:13:50 47° E 19:33:11 10° ESE
ARIANE 42L R/B 4.3 20:13:49 38° E 20:13:49 38° E 20:19:29 10° E
ARIANE 5 R/B 4.0 20:20:18 18° SSE 20:20:18 18° SSE 20:21:28 10° SE
SL-16 R/B 3.1 20:19:20 10° SSE 20:25:24 54° ENE 20:26:56 43° NNE
CENTAUR R/B 4.4 20:33:45 11° NNE 20:33:45 11° NNE 20:33:54 10° NNE
Cosmos 1452 Rocket 4.1 20:33:15 50° ENE 20:33:36 51° ENE 20:38:39 10° SSE
BlueWalker 3 4.0 20:41:05 25° ESE 20:41:05 25° ESE 20:42:48 10° SE
FALCON 9 R/B 3.4 20:33:54 10° SW 20:40:42 31° SSE 20:43:46 10° E
Ariane H10+ 2.6 20:39:33 67° W 20:40:46 88° N 20:46:07 10° E
H-10 deb 3.4 20:42:18 60° NW 20:43:18 68° N 21:13:37 10° E
H-10 deb 3.4 20:42:18 60° NW 20:43:19 68° N 21:13:37 10° E
H-10 deb 3.4 20:42:19 60° NW 20:43:19 68° N 21:13:38 10° E
H-10 deb 3.4 20:42:19 60° NW 20:43:19 68° N 21:13:37 10° E
H-10 deb 3.4 20:42:18 60° NW 20:43:19 68° N 21:13:38 10° E
Cosmos 1328 Rocket 3.9 20:49:45 58° SSE 20:49:45 58° SSE 20:53:17 10° S
Cosmos 2184 Rocket 4.4 20:50:05 10° S 20:56:16 63° E 21:02:21 10° NNE
Meteor 1-28 Rocket 3.8 21:00:34 10° SSE 21:02:54 43° SSE 21:02:54 43° SSE
Cosmos 1743 Rocket 4.4 21:01:35 10° S 21:05:53 50° E 21:10:10 10° NNE
Cosmos 1833 Rocket 4.0 21:04:47 10° N 21:09:57 38° ENE 21:15:05 10° SE
Cosmos 407 Rocket 3.4 21:05:04 10° S 21:10:10 81° E 21:15:15 10° NNE
SJ 16-02 3.8 21:08:32 10° SSE 21:11:53 23° E 21:15:13 10° NE
Cosmos 1703 3.1 21:11:43 60° NE 21:12:02 65° E 21:15:16 10° SSE
Cosmos 2074 Rocket 3.9 21:10:03 10° S 21:16:20 78° W 21:22:37 10° N
NATO 3D Rocket 4.4 21:16:06 32° W 21:18:47 54° SSW 21:26:44 10° SE
Cosmos 1515 Rocket 4.0 21:15:27 10° N 21:19:44 62° E 21:23:59 10° SSE
USA 215 3.3 21:14:41 10° SE 21:21:15 83° NE 21:26:16 19° NNW
ARIANE 3 DEB 4.3 21:18:08 32° W 21:21:51 74° N 21:29:54 10° E
Hubble Space Telescope 1.0 21:26:56 38° WSW 21:27:49 47° SSW 21:31:28 10° SE
Cosmos 1805 Rocket 4.0 21:24:23 10° SSW 21:28:29 39° W 21:30:03 29° NW
NOSS 2-2 (D) 3.8 21:24:20 10° SSW 21:30:25 65° WNW 21:34:41 10° NNE
ARIANE 5 DEB (SYLDA) 2.7 21:30:15 30° S 21:30:27 31° S 21:32:33 10° ESE
RESURS DK-1 4.5 21:32:14 12° SW 21:32:14 12° SW 21:32:47 10° SW
Mugunghwa Rocket 4.1 21:24:46 12° WSW 21:30:48 82° SSE 21:37:48 10° ENE
BREEZE-M DEB (TANK) 4.3 21:32:53 23° NW 21:33:58 25° NNW 21:42:33 10° NNE
Cosmos 2251 Rocket 4.0 21:28:43 10° S 21:34:00 63° ESE 21:39:15 10° NNE
Cosmos 1500 Rocket 4.2 21:31:46 10° SSW 21:35:34 31° W 21:36:55 25° NW
SeaSat 1 3.9 21:33:56 10° NE 21:38:29 40° ESE 21:43:02 10° S
Centaur D-1AR AC-48 3.3 21:37:02 16° NW 21:39:52 24° N 21:42:53 10° ENE
NOAA 12 4.5 21:39:48 10° N 21:44:38 39° WNW 21:49:30 10° SW
IRS-1D 4.0 21:40:56 10° N 21:45:45 38° WNW 21:50:32 10° SW
Ariane H10 2.6 21:40:32 16° W 21:47:03 63° N 21:50:09 10° ENE
Cosmos 2369 Rocket 2.4 21:45:03 10° SSW 21:50:40 79° ESE 21:56:20 10° NNE
Cosmos 1302 Rocket 4.5 21:46:34 13° NW 21:50:46 39° WSW 21:55:34 10° S
NOSS 2-2 (E) 4.1 21:49:08 10° SW 21:54:54 45° WNW 21:59:02 10° N
Cosmos 371 Rocket 3.2 21:50:54 10° SSW 21:55:44 84° WNW 22:00:31 10° N
Cosmos 1484 Rocket 2.7 21:54:41 10° NNE 21:58:08 74° ESE 22:01:37 10° S
COSMO-SKYMED 1 4.5 21:55:34 10° SE 21:59:08 29° ENE 22:02:41 10° NNE
IGS 5A 3.3 21:55:24 10° N 21:59:21 88° W 22:03:19 10° SSW
NOSS 3-2 (A) 3.2 21:57:19 10° SW 22:01:42 38° WNW 22:06:05 10° N
BREEZE-M R/B 4.2 21:57:28 10° SSW 22:03:41 49° SE 22:07:05 10° ENE
Cosmos 1190 Rocket 4.0 22:03:30 10° SSW 22:08:38 58° WNW 22:13:44 10° N
SL-16 R/B 4.2 22:06:10 10° SW 22:08:39 13° WSW 22:11:08 10° W
Cosmos 1470 Rocket 4.2 22:04:42 10° S 22:08:58 60° E 22:13:11 10° NNE
GPS 2-15 Rocket1 3.1 22:05:54 10° WSW 22:10:41 75° NNW 22:15:28 10° ENE
Cosmos 2297 3.7 22:05:20 10° SSW 22:10:57 68° WNW 22:16:31 10° N
USA 234 3.4 22:06:02 10° NNE 22:12:19 51° NW 22:18:37 10° SW
USA 32 4.4 22:08:22 10° SSW 22:13:19 43° W 22:18:15 10° NNW
H-2A ROCKET BODY 3.7 21:48:00 10° WSW 22:14:18 76° NW 22:20:11 10° NE
Cosmos 1992 Rocket 4.3 22:09:46 10° NNW 22:14:42 45° WSW 22:19:39 10° S
Cosmos 304 Rocket 4.2 22:11:45 10° SSW 22:16:11 39° WNW 22:20:36 10° N
Cosmos 2263 4.2 22:13:21 10° SSW 22:19:06 76° WNW 22:24:51 10° N
Yuri Rocket 3.2 22:15:23 10° WNW 22:19:33 55° SSW 22:23:40 10° SE
FUSE 3.9 22:16:44 10° WSW 22:22:02 83° NNW 22:27:20 10° ENE
